User: anonymous   Login
Location: Ikejouine
(32.5142°N, 5.4699°W)
Time: 12:25:50
(UTC+00:00)
Language:

ADEOS Rocket - Orbit

View from above orbital plane
View from above orbital plane
View from above satellite
View from above satellite

Ground track
Ground track

The orbit data is extracted from the following two-line orbital elements,

1 24279U 96046C   20190.78785736 +.00000024 +00000-0 +77291-4 0  9998
2 24279 098.6939 009.6391 0299322 319.0291 049.1997 13.47148272174448
Epoch (UTC): 08 July 2020 18:54:30
Eccentricity: 0.0299322
inclination: 98.6939°
perigee height: 859 km
apogee height: 1306 km
right ascension of ascending node: 9.6391°
argument of perigee: 319.0291°
revolutions per day: 13.47148272
mean anomaly at epoch: 49.1997°
orbit number at epoch: 17444

The dashed part of the orbit path shows where the satellite is in the earth's shadow,  

DLR